ICULIA30 Weather Reports


Display with metric or nautical units.
time (UTC)temp
F
wind
direction
speed
MPH
gust
MPH
rain 1hr
in
rain 24hr
in
rain mn
in
humidity
%
barometer
mb
20260503200017 95 228 7.0 17.0 0.00 0.00 0.00 28 1011.8
20260503195018 95 219 5.0 12.0 0.00 0.00 0.00 26 1011.9
20260503194037 95 229 5.0 13.0 0.00 0.00 0.00 27 1011.9
20260503193017 95 228 5.0 13.0 0.00 0.00 0.00 27 1012.0
20260503192018 94 193 5.0 13.0 0.00 0.00 0.00 27 1012.2
20260503191037 94 201 5.0 13.0 0.00 0.00 0.00 28 1012.2
20260503190017 94 201 3.0 9.0 0.00 0.00 0.00 28 1012.2
20260503185018 94 197 4.0 8.0 0.00 0.00 0.00 27 1012.3
20260503184017 94 179 5.0 11.0 0.00 0.00 0.00 27 1012.4
20260503183017 94 175 3.0 10.0 0.00 0.00 0.00 26 1012.5
20260503182017 94 160 3.0 9.0 0.00 0.00 0.00 26 1012.6
20260503181017 93 168 3.0 7.0 0.00 0.00 0.00 26 1012.7
20260503180018 94 173 2.0 9.0 0.00 0.00 0.00 26 1012.8
20260503175018 93 201 2.0 8.0 0.00 0.00 0.00 25 1012.9
20260503174017 93 232 2.0 7.0 0.00 0.00 0.00 25 1013.2
20260503173017 92 208 3.0 9.0 0.00 0.00 0.00 25 1013.3
20260503172017 91 207 3.0 8.0 0.00 0.00 0.00 26 1013.3
20260503171017 91 200 4.0 7.0 0.00 0.00 0.00 26 1013.3
20260503131017 71 117 0.0 2.0 0.00 0.00 0.00 47 1012.2
20260503081017 74 0.0 2.0 0.00 0.00 0.00 49 1010.8
20260503072017 74 221 0.0 2.0 0.00 0.00 0.00 53 1011.8
20260503071017 75 221 0.0 2.0 0.00 0.00 0.00 53 1011.7
20260503055037 77 242 0.0 2.0 0.00 0.00 0.00 49 1011.3
20260503054017 77 242 1.0 2.0 0.00 0.00 0.00 49 1011.2
20260503053017 77 0.0 2.0 0.00 0.00 0.00 47 1011.3
20260503052037 78 0.0 2.0 0.00 0.00 0.00 46 1011.2
20260503051017 78 269 0.0 2.0 0.00 0.00 0.00 43 1011.1
20260503050017 78 304 0.0 2.0 0.00 0.00 0.00 42 1011.1
20260503045017 79 304 0.0 2.0 0.00 0.00 0.00 42 1011.1
20260503044017 79 0.0 2.0 0.00 0.00 0.00 41 1011.2
20260503043037 79 0.0 2.0 0.00 0.00 0.00 40 1011.2
20260503042017 79 0.0 2.0 0.00 0.00 0.00 39 1011.1
20260503041037 80 0.0 0.0 0.00 0.00 0.00 38 1010.9
20260503022016 84 300 2.0 4.0 0.00 0.00 0.00 32 1009.9
20260503021057 85 301 2.0 5.0 0.00 0.00 0.00 32 1009.7
20260503020017 85 286 2.0 6.0 0.00 0.00 0.00 31 1009.6
20260503015016 86 286 2.0 4.0 0.00 0.00 0.00 30 1009.3
20260503014017 87 243 1.0 4.0 0.00 0.00 0.00 30 1009.1
20260503013016 87 0.0 0.0 0.00 0.00 0.00 29 1009.0
20260503012017 88 285 2.0 9.0 0.00 0.00 0.00 28 1009.1
20260503011017 89 263 2.0 8.0 0.00 0.00 0.00 28 1008.8
20260503010017 90 299 5.0 10.0 0.00 0.00 0.00 28 1008.7
20260503005016 90 301 3.0 9.0 0.00 0.00 0.00 28 1008.5
20260503004017 91 279 3.0 8.0 0.00 0.00 0.00 28 1008.6
20260503003017 91 283 3.0 9.0 0.00 0.00 0.00 28 1008.4
20260503002017 92 285 5.0 10.0 0.00 0.00 0.00 28 1008.4
20260503001037 92 297 5.0 11.0 0.00 0.00 0.00 28 1008.5
20260503000017 93 279 4.0 11.0 0.00 0.00 0.00 28 1008.5
20260502235037 93 266 4.0 12.0 0.00 0.00 0.00 28 1008.3
20260502234017 93 270 4.0 13.0 0.00 0.00 0.00 28 1008.4
20260502233016 94 280 4.0 12.0 0.00 0.00 0.00 27 1008.1
20260502232036 94 293 4.0 12.0 0.00 0.00 0.00 27 1008.2
20260502231016 95 295 4.0 11.0 0.00 0.00 0.00 26 1008.2
20260502230017 96 280 3.0 11.0 0.00 0.00 0.00 26 1008.2
20260502225016 96 239 3.0 10.0 0.00 0.00 0.00 24 1008.2
20260502224017 97 236 6.0 14.0 0.00 0.00 0.00 24 1008.3
20260502223037 97 259 5.0 12.0 0.00 0.00 0.00 24 1008.2
20260502222017 97 267 5.0 12.0 0.00 0.00 0.00 23 1008.4
20260502221017 97 257 3.0 10.0 0.00 0.00 0.00 23 1008.3
20260502220016 97 234 4.0 11.0 0.00 0.00 0.00 23 1008.2
20260502215037 97 219 6.0 11.0 0.00 0.00 0.00 23 1008.1
20260502214017 97 243 3.0 8.0 0.00 0.00 0.00 23 1008.1
20260502213016 97 219 6.0 12.0 0.00 0.00 0.00 23 1008.4
20260502212016 98 232 4.0 9.0 0.00 0.00 0.00 23 1008.5
20260502211037 98 226 4.0 9.0 0.00 0.00 0.00 24 1008.5
20260502210016 97 200 3.0 12.0 0.00 0.00 0.00 23 1008.7
20260502205017 97 274 4.0 9.0 0.00 0.00 0.00 23 1009.0
20260502204016 97 232 2.0 9.0 0.00 0.00 0.00 23 1009.2
20260502203016 97 207 5.0 11.0 0.00 0.00 0.00 23 1009.3
20260502202017 97 230 3.0 11.0 0.00 0.00 0.00 24 1009.6
20260502201017 98 213 4.0 10.0 0.00 0.00 0.00 25 1009.7